Total_Precipitation_Accumulation
2.19 2.30 2.11 2.13 1.93 2.05 2.39 2.65 2.68 2.89 3.04 2.90 2.54 2.32 2.31 2.24 2.04 2.02 2.28 2.51 2.53 2.43 2.51 2.49 2.22 2.08 2.01 1.73 1.52 1.37 1.22 1.11 0.99 0.83 0.77 0.73 0.62 0.43 0.27 0.22 0.23 0.25 0.22
2.37 2.45 2.35 2.30 2.01 2.02 2.33 2.67 2.74 3.02 3.01 3.03 2.54 2.23 2.15 2.15 1.94 1.82 1.92 2.31 2.33 2.20 2.24 2.44 2.47 2.40 2.29 2.05 1.80 1.56 1.39 1.23 1.09 0.88 0.76 0.71 0.65 0.53 0.45 0.34 0.31 0.30 0.25
2.59 2.74 2.66 2.31 2.09 2.19 2.38 2.40 2.53 2.98 2.83 2.80 2.64 2.55 2.48 2.25 1.99 1.84 1.80 1.93 1.87 2.03 2.14 2.23 2.42 2.56 2.61 2.50 2.27 1.99 1.74 1.45 1.18 0.95 0.80 0.70 0.62 0.55 0.51 0.45 0.42 0.40 0.32
2.33 2.52 2.29 1.94 2.01 2.24 2.40 2.37 2.38 2.76 2.86 2.88 2.88 2.74 2.58 2.33 1.97 1.83 1.78 1.70 1.72 1.56 1.81 2.05 2.27 2.46 2.75 2.86 2.91 2.87 2.50 1.93 1.47 1.12 0.90 0.79 0.70 0.58 0.47 0.43 0.43 0.45 0.36
1.58 1.76 1.71 1.64 1.69 1.95 1.99 1.77 2.00 2.28 2.44 2.59 2.43 2.25 1.99 1.75 1.58 1.47 1.43 1.33 1.50 1.59 1.65 1.71 2.00 2.20 2.62 3.19 3.61 3.64 3.29 2.59 1.91 1.51 1.28 1.10 1.01 0.81 0.57 0.46 0.48 0.47 0.40
1.31 1.44 1.45 1.33 1.35 1.45 1.50 1.67 1.95 2.03 1.96 2.04 1.82 1.72 1.62 1.40 1.31 1.26 1.08 1.08 1.23 1.22 1.30 1.53 1.79 1.65 2.12 2.78 3.28 3.53 3.49 3.19 2.54 2.04 1.76 1.61 1.53 1.22 0.82 0.64 0.60 0.51 0.44
1.32 1.41 1.30 1.29 1.24 1.26 1.26 1.38 1.59 1.65 1.45 1.59 1.83 1.69 1.40 1.16 1.12 1.09 1.01 1.07 1.09 1.14 1.31 1.64 1.81 1.79 1.67 1.77 2.06 2.65 3.19 3.45 3.30 2.78 2.27 2.01 1.93 1.62 1.18 0.97 0.81 0.69 0.65
1.25 1.19 1.29 1.12 1.08 1.18 1.15 1.24 1.43 1.45 1.28 1.37 1.62 1.69 1.47 1.38 1.13 0.77 0.88 0.97 0.97 1.17 1.27 1.36 1.61 1.96 1.90 2.03 1.56 1.87 2.74 3.24 3.59 3.57 3.08 2.59 2.30 1.92 1.51 1.31 1.11 0.96 0.88
1.04 0.99 0.98 0.95 0.98 0.91 1.01 1.15 1.26 1.41 1.37 1.18 1.20 1.44 1.37 1.30 1.16 0.88 0.75 0.82 0.99 1.15 1.17 1.31 1.42 1.71 1.95 2.24 2.14 1.77 1.99 2.38 3.18 3.84 3.78 3.12 2.35 1.82 1.58 1.54 1.49 1.25 1.07
1.07 1.01 0.88 0.91 0.91 0.82 1.01 0.88 1.00 1.21 1.30 1.12 1.11 1.10 1.13 1.18 1.19 1.10 0.94 0.82 0.99 1.05 1.11 1.17 1.33 1.61 1.81 2.09 2.17 1.73 1.47 1.68 2.40 3.24 3.67 3.47 2.73 2.04 1.70 1.77 2.00 1.87 1.52
1.18 0.98 0.95 1.00 1.00 0.87 0.89 0.92 1.07 1.11 1.15 1.09 1.08 1.09 1.23 1.23 1.06 1.07 1.09 1.05 1.03 0.87 0.99 1.19 1.31 1.45 1.60 1.89 2.17 1.90 1.71 1.57 1.65 2.02 2.49 2.87 2.96 2.66 2.35 2.32 2.59 2.76 2.58
1.17 1.05 1.05 1.16 1.12 1.05 0.98 0.96 0.99 1.04 1.17 1.25 1.22 1.11 1.14 1.18 1.09 1.08 0.95 0.93 1.01 0.90 1.07 1.32 1.38 1.44 1.46 1.66 1.68 1.64 1.56 1.46 1.38 1.35 1.51 1.78 2.13 2.34 2.33 2.43 2.78 3.13 3.32
1.01 1.07 1.06 1.15 1.14 1.15 1.10 1.15 1.15 1.07 1.15 1.23 1.17 1.12 1.07 1.04 1.11 1.17 1.12 1.00 1.04 1.03 1.24 1.36 1.45 1.49 1.45 1.61 1.64 1.54 1.30 1.21 1.10 1.04 1.12 1.25 1.39 1.64 1.90 2.08 2.39 2.74 3.06
0.93 0.94 0.98 1.00 1.03 1.07 1.06 1.29 1.20 1.21 1.23 1.16 1.08 1.27 1.21 1.05 1.16 1.23 1.33 1.43 1.37 1.36 1.50 1.52 1.59 1.60 1.72 1.77 1.70 1.58 1.30 1.21 1.07 0.99 0.94 0.93 0.96 1.03 1.21 1.42 1.67 1.97 2.27
1.04 1.05 1.05 1.14 1.19 1.20 1.22 1.38 1.34 1.28 1.34 1.19 1.14 1.24 1.22 1.18 1.21 1.20 1.41 1.60 1.72 1.66 1.64 1.61 1.50 1.47 1.53 1.58 1.54 1.33 1.15 1.15 1.05 0.95 0.91 0.86 0.83 0.85 0.89 0.95 1.02 1.11 1.21
1.16 1.21 1.22 1.27 1.32 1.28 1.27 1.40 1.40 1.44 1.46 1.36 1.34 1.33 1.31 1.29 1.38 1.32 1.40 1.53 1.68 1.86 1.79 1.50 1.41 1.41 1.38 1.23 1.24 1.13 1.07 1.20 1.09 0.98 0.92 0.89 0.88 0.86 0.83 0.84 0.84 0.87 0.89
1.23 1.25 1.31 1.37 1.34 1.38 1.47 1.56 1.44 1.49 1.56 1.68 1.62 1.57 1.61 1.68 1.65 1.56 1.59 1.60 1.64 1.85 1.82 1.46 1.49 1.54 1.44 1.26 1.15 1.07 1.04 1.10 1.12 1.18 1.02 0.90 0.80 0.75 0.73 0.74 0.76 0.79 0.81
1.44 1.38 1.39 1.41 1.31 1.33 1.50 1.58 1.56 1.56 1.57 1.58 1.73 1.92 1.90 1.86 1.74 1.61 1.68 1.63 1.62 1.86 1.80 1.60 1.65 1.70 1.65 1.43 1.32 1.21 1.06 1.04 1.10 1.23 1.06 0.93 0.86 0.80 0.76 0.76 0.77 0.76 0.75
1.65 1.67 1.63 1.52 1.43 1.39 1.45 1.53 1.59 1.58 1.61 1.67 1.78 1.86 1.93 2.03 1.88 1.76 1.71 1.68 1.73 1.85 1.93 1.80 1.77 1.93 1.89 1.67 1.52 1.30 1.11 1.12 1.01 1.12 1.09 1.00 0.97 0.93 0.88 0.82 0.79 0.76 0.73
1.70 1.83 1.79 1.71 1.67 1.56 1.43 1.41 1.43 1.49 1.65 1.79 1.84 1.76 1.84 2.07 2.12 2.07 1.90 1.82 1.89 2.00 2.05 2.02 1.99 2.08 2.11 2.03 1.81 1.51 1.33 1.21 1.07 1.01 1.10 1.03 1.00 0.95 0.89 0.82 0.77 0.76 0.75
1.68 1.84 1.91 1.91 1.84 1.66 1.44 1.45 1.54 1.51 1.65 1.71 1.67 1.58 1.59 1.78 1.99 2.07 1.90 1.85 1.92 1.93 1.95 2.01 2.02 2.07 2.09 2.17 1.99 1.69 1.50 1.37 1.19 1.04 1.08 1.03 0.98 0.90 0.89 0.90 0.84 0.78 0.71
2.07 2.11 2.07 2.01 1.90 1.55 1.58 1.56 1.55 1.60 1.69 1.70 1.67 1.62 1.51 1.46 1.50 1.64 1.76 1.86 1.95 1.89 1.84 1.96 2.10 2.13 2.10 2.12 2.13 1.97 1.73 1.51 1.36 1.18 1.22 1.22 1.14 1.07 0.92 0.84 0.87 0.80 0.73
2.43 2.43 2.31 2.14 2.00 1.89 1.76 1.55 1.49 1.44 1.46 1.49 1.54 1.53 1.32 1.21 1.30 1.26 1.43 1.55 1.66 1.72 1.71 1.81 1.92 2.00 2.11 2.25 2.30 2.11 1.93 1.76 1.52 1.32 1.29 1.19 1.11 1.11 1.02 0.94 0.99 0.85 0.80
2.36 2.37 2.32 2.19 2.08 1.99 1.84 1.52 1.42 1.26 1.29 1.35 1.38 1.37 1.32 1.27 1.26 1.30 1.31 1.30 1.29 1.36 1.45 1.46 1.58 1.79 2.01 2.21 2.34 2.24 2.11 1.82 1.55 1.36 1.31 1.19 1.03 0.98 0.93 0.95 1.03 0.95 0.85
2.08 2.00 1.97 1.98 1.95 2.00 1.91 1.57 1.39 1.25 1.35 1.38 1.39 1.40 1.41 1.34 1.43 1.30 1.23 1.26 1.27 1.30 1.34 1.39 1.42 1.57 1.82 1.99 2.06 2.08 2.01 1.83 1.59 1.36 1.27 1.24 1.04 0.96 0.92 0.84 0.87 0.93 0.84
1.96 1.91 1.82 1.84 1.84 1.85 1.80 1.45 1.33 1.26 1.37 1.40 1.43 1.43 1.42 1.31 1.28 1.14 1.06 1.17 1.19 1.22 1.27 1.27 1.27 1.27 1.32 1.61 1.89 1.72 1.69 1.71 1.55 1.32 1.09 1.15 1.14 1.14 1.06 0.83 0.74 0.75 0.72